Вернуться в каталог

ONEWEB-0396

АктивенСвязьPO
NORAD 50476·PAYLOAD·🇬🇧 United Kingdom

Запущен Dec 27, 2021 с Baikonur Cosmodrome

Loading…

Ближайшие Пролёты (ближайшие 24 часа)

TLE

СвежийSource: CelesTrak SupGP

Эпоха: Sep 14, 2026, 22:28 UTC

1 50476C 21132H   26257.93661296  .00001702  00000+0  43222-2 0  2576
2 50476  87.9166 317.6259 0002124 103.1133 292.3668 13.18685172    14

Отслеживайте ONEWEB-0396 в реальном времени с AllMySat

Download on the App Store